Tracking 23757 objects as of 26-Oct-2021
HD Live streaming from Space Station
objects crossing your sky now

SSA

Track SSA now!
10-day predictions
SSA is classified as:


NORAD ID: 13844
Int'l Code: 1983-008E
Perigee: 394.2 km
Apogee: 1,713.0 km
Inclination: 63.3 °
Period: 106.1 minutes
Semi major axis: 7424 km
RCS: Unknown
Launch date: February 9, 1983
Source: United States (US)
Launch site: AIR FORCE WESTERN TEST RANGE (AFWTR)
aabbcc
Your satellite tracking list
Your tracking list is empty




NASA's NSSDC Master Catalog

Two Line Element Set (TLE):
1 13844U 83008E   21298.52153668  .00000989  00000-0  96501-4 0  9998
2 13844  63.2988 306.5522 0888074 104.5527 265.5597 13.57039573126988
Source of the keplerian elements: McCants